Date String (YYYY-MM-DD hh:mm:ss) UTC,Instrument flags,Ambient pressure (hPa),Sample flow (lpm),Bypass flow (lpm),Sample temperature (°C),Ambient temperature (°C),ASC tube jacket temperature (°C),LED temperature (°C),Box temperature (°C),Sample RH (%),Span deviation,Mass concentration (μg/m³),Mass concentration (μg/m³),Mass concentration (μg/m³)
DateTimeUTC,F1_M11,P_M11,Q1_M11,Q2_M11,T1_M11,T2_M11,T3_M11,T4_M11,T5_M11,U1_M11,ZSPAN_M11,X2_M11,X0_M11,X1_M11
2021-11-03 15:00:00,,0833.3,5.01,0.00,23.7,22.9,00.0,32.6,25.5,24.5,0000.0,0002.51,0002.76,0002.38
2021-11-03 15:01:00,,0833.3,5.01,0.00,23.7,22.9,00.0,32.6,25.5,24.6,0000.0,0002.52,0002.79,0002.39
2021-11-03 15:02:00,,0833.4,4.99,0.00,23.7,22.9,00.0,32.6,25.5,24.7,0000.0,0002.54,0003.06,0002.39
2021-11-03 15:03:00,,0833.4,5.01,0.00,23.7,22.9,00.0,32.6,25.6,25.0,0000.0,0002.56,0003.12,0002.40
2021-11-03 15:04:00,,0833.5,5.00,0.00,23.8,23.0,00.0,32.7,25.6,23.9,0000.0,0002.59,0003.17,0002.42
2021-11-03 15:05:00,,0833.5,5.01,0.00,23.8,23.0,00.0,32.7,25.6,23.9,0000.0,0002.64,0003.27,0002.45
2021-11-03 15:06:00,,0833.4,5.00,0.00,23.8,23.0,00.0,32.7,25.6,24.3,0000.0,0002.66,0003.24,0002.48
2021-11-03 15:07:00,,0833.4,4.99,0.00,23.8,23.1,00.0,32.7,25.7,24.2,0000.0,0002.70,0003.23,0002.55
2021-11-03 15:08:00,,0833.5,5.00,0.00,23.8,23.1,00.0,32.7,25.7,23.9,0000.0,0002.80,0003.36,0002.65
2021-11-03 15:09:00,,0833.5,5.01,0.00,23.9,23.1,00.0,32.7,25.7,24.0,0000.0,0002.94,0003.54,0002.77
2021-11-03 15:10:00,,0833.4,5.00,0.00,23.9,23.2,00.0,32.8,25.8,23.6,0000.0,0003.07,0003.69,0002.89
2021-11-03 15:11:00,,0833.5,5.00,0.00,23.9,23.2,00.0,32.8,25.8,23.5,0000.0,0003.17,0003.94,0003.02
2021-11-03 15:12:00,,0833.5,5.00,0.00,23.9,23.2,00.0,32.8,25.9,23.8,0000.0,0003.23,0004.05,0003.13
2021-11-03 15:13:00,,0833.5,5.00,0.00,23.9,23.2,00.0,32.8,25.9,24.1,0000.0,0003.31,0004.00,0003.20
2021-11-03 15:14:00,,0833.5,5.01,0.00,24.0,23.2,00.0,32.8,25.9,23.5,0000.0,0003.39,0004.19,0003.27
2021-11-03 15:15:00,,0833.4,4.99,0.00,24.0,23.3,00.0,32.9,25.9,23.5,0000.0,0003.46,0004.69,0003.34
2021-11-03 15:16:00,,0833.5,5.00,0.00,24.0,23.3,00.0,32.9,25.9,23.4,0000.0,0003.51,0005.09,0003.41
2021-11-03 15:17:00,,0833.5,4.99,0.00,24.0,23.3,00.0,32.9,26.0,23.3,0000.0,0003.58,0005.24,0003.46
2021-11-03 15:18:00,,0833.5,5.01,0.00,24.0,23.3,00.0,32.9,26.0,23.8,0000.0,0003.63,0005.42,0003.51
2021-11-03 15:19:00,,0833.5,5.00,0.00,24.1,23.4,00.0,32.9,26.0,23.7,0000.0,0003.66,0005.47,0003.53
2021-11-03 15:20:00,,0833.5,5.00,0.00,24.1,23.4,00.0,32.9,26.0,23.3,0000.0,0003.68,0005.49,0003.55
2021-11-03 15:21:00,,0833.5,5.01,0.00,24.1,23.4,00.0,33.0,26.1,23.5,0000.0,0003.68,0005.51,0003.55
2021-11-03 15:22:00,,0833.6,5.00,0.00,24.1,23.4,00.0,33.0,26.1,24.3,0000.0,0003.67,0005.45,0003.55
2021-11-03 15:23:00,,0833.5,4.99,0.00,24.1,23.4,00.0,33.0,26.1,24.1,0000.0,0003.67,0005.46,0003.54
2021-11-03 15:24:00,,0833.5,5.01,0.00,24.2,23.5,00.0,33.0,26.1,24.4,0000.0,0003.65,0005.37,0003.52
2021-11-03 15:25:00,,0833.5,5.00,0.00,24.2,23.5,00.0,33.0,26.1,23.9,0000.0,0003.62,0005.27,0003.50
2021-11-03 15:26:00,,0833.5,4.99,0.00,24.2,23.5,00.0,33.1,26.1,23.9,0000.0,0003.58,0004.81,0003.47
2021-11-03 15:27:00,,0833.5,5.00,0.00,24.2,23.5,00.0,33.1,26.2,23.7,0000.0,0003.56,0004.45,0003.45
2021-11-03 15:28:00,,0833.5,4.98,0.00,24.2,23.5,00.0,33.1,26.2,24.2,0000.0,0003.56,0004.49,0003.43
2021-11-03 15:29:00,,0833.6,5.00,0.00,24.3,23.5,00.0,33.1,26.2,24.0,0000.0,0003.53,0004.46,0003.41
2021-11-03 15:30:00,,0833.5,5.00,0.00,24.3,23.6,00.0,33.1,26.2,24.0,0000.0,0003.51,0004.46,0003.39
2021-11-03 15:31:00,,0833.6,5.00,0.00,24.3,23.6,00.0,33.2,26.3,24.4,0000.0,0003.49,0004.39,0003.37
2021-11-03 15:32:00,,0833.6,4.98,0.00,24.3,23.6,00.0,33.2,26.3,23.9,0000.0,0003.48,0004.38,0003.36
2021-11-03 15:33:00,,0833.6,5.01,0.00,24.3,23.6,00.0,33.2,26.3,23.5,0000.0,0003.47,0004.30,0003.36
2021-11-03 15:34:00,,0833.6,4.99,0.00,24.4,23.6,00.0,33.2,26.3,24.1,0000.0,0003.47,0004.29,0003.36
2021-11-03 15:35:00,,0833.6,5.01,0.00,24.4,23.7,00.0,33.2,26.3,24.0,0000.0,0003.49,0004.38,0003.38
2021-11-03 15:36:00,,0833.5,5.01,0.00,24.4,23.7,00.0,33.3,26.4,24.2,0000.0,0003.50,0004.40,0003.39
2021-11-03 15:37:00,,0833.5,4.99,0.00,24.4,23.7,00.0,33.3,26.4,24.2,0000.0,0003.52,0004.43,0003.40
2021-11-03 15:38:00,,0833.6,4.99,0.00,24.4,23.7,00.0,33.3,26.4,23.8,0000.0,0003.55,0004.54,0003.41
2021-11-03 15:39:00,,0833.6,5.02,0.00,24.5,23.8,00.0,33.3,26.4,23.9,0000.0,0003.57,0004.61,0003.42
2021-11-03 15:40:00,,0833.5,5.00,0.00,24.5,23.8,00.0,33.3,26.4,24.1,0000.0,0003.56,0004.49,0003.42
2021-11-03 15:41:00,,0833.5,5.00,0.00,24.5,23.8,00.0,33.4,26.5,23.4,0000.0,0003.55,0004.39,0003.43
2021-11-03 15:42:00,,0833.5,5.00,0.00,24.5,23.8,00.0,33.4,26.5,23.6,0000.0,0003.58,0004.49,0003.44
2021-11-03 15:43:00,,0833.6,5.00,0.00,24.6,23.8,00.0,33.4,26.5,23.9,0000.0,0003.58,0004.45,0003.44
2021-11-03 15:44:00,,0833.5,4.99,0.00,24.6,23.9,00.0,33.4,26.5,23.7,0000.0,0003.59,0004.51,0003.45
2021-11-03 15:45:00,,0833.5,5.00,0.00,24.6,23.9,00.0,33.4,26.5,23.6,0000.0,0003.62,0004.65,0003.46
2021-11-03 15:46:00,,0833.5,5.01,0.00,24.6,23.9,00.0,33.4,26.6,23.1,0000.0,0003.61,0004.59,0003.46
2021-11-03 15:47:00,,0833.5,5.00,0.00,24.6,23.9,00.0,33.5,26.6,22.8,0000.0,0003.61,0004.56,0003.46
2021-11-03 15:48:00,,0833.6,4.99,0.00,24.7,23.9,00.0,33.5,26.6,22.9,0000.0,0003.61,0004.56,0003.47
2021-11-03 15:49:00,,0833.6,5.01,0.00,24.7,23.9,00.0,33.5,26.6,22.9,0000.0,0003.62,0004.56,0003.48
2021-11-03 15:50:00,,0833.5,5.00,0.00,24.7,23.9,00.0,33.5,26.6,22.9,0000.0,0003.61,0004.49,0003.49
2021-11-03 15:51:00,,0833.6,4.99,0.00,24.7,24.0,00.0,33.5,26.6,23.5,0000.0,0003.61,0004.56,0003.49
2021-11-03 15:52:00,,0833.5,5.00,0.00,24.7,24.0,00.0,33.6,26.6,23.1,0000.0,0003.63,0004.89,0003.51
2021-11-03 15:53:00,,0833.5,5.01,0.00,24.7,24.0,00.0,33.6,26.7,23.2,0000.0,0003.64,0005.09,0003.53
2021-11-03 15:54:00,,0833.6,4.99,0.00,24.7,24.0,00.0,33.6,26.7,23.0,0000.0,0003.67,0005.19,0003.55
2021-11-03 15:55:00,,0833.5,4.99,0.00,24.8,24.0,00.0,33.6,26.7,23.0,0000.0,0003.68,0005.20,0003.56
2021-11-03 15:56:00,,0833.5,5.01,0.00,24.8,24.0,00.0,33.6,26.7,23.0,0000.0,0003.68,0005.15,0003.58
2021-11-03 15:57:00,,0833.5,4.99,0.00,24.8,24.1,00.0,33.7,26.7,23.1,0000.0,0003.72,0005.21,0003.62
2021-11-03 15:58:00,,0833.5,5.00,0.00,24.8,24.1,00.0,33.7,26.7,23.2,0000.0,0003.75,0005.26,0003.66
2021-11-03 15:59:00,,0833.5,5.00,0.00,24.8,24.1,00.0,33.7,26.8,22.8,0000.0,0003.78,0005.30,0003.68
